[[[{"header":{"parameterUnit":"kt","parameterCategory":2,"dx":1,"dy":1,"la1":30.253999710083008,"la2":30.299108505249023,"lo1":-89.0895004272461,"lo2":-89.04439544677734,"nx":28,"ny":28,"refTime":"2022-10-12T21:00:00:Z","depth":0,"parameterNumber":1,"parameterNumberName":"U-component_of_WINDS"},"data":[-1.4278,-1.4272,-1.4256,-1.4239,-1.4222,-1.4207,-1.4196,-1.418,-1.4162,-1.414,-1.4123,-1.4105,-1.4079,-1.4053,-1.4032,-1.4024,-1.4016,-1.4023,-1.4012,-1.3997,-1.3994,-1.3991,-1.3992,-1.4022,-1.4022,-1.4029,-1.403,-1.403,-1.4259,-1.4242,-1.4231,-1.4209,-1.4197,-1.4179,-1.4159,-1.415,-1.4137,-1.4116,-1.41,-1.4079,-1.4059,-1.4031,-1.4009,-1.4001,-1.3991,-1.3996,-1.3996,-1.3992,-1.3975,-1.3977,-1.4004,-1.4004,-1.4004,-1.4004,-1.4004,-1.4004,-1.4219,-1.4217,-1.4196,-1.4183,-1.4168,-1.4152,-1.4146,-1.4126,-1.4113,-1.4092,-1.4076,-1.406,-1.4035,-1.4003,-1.3987,-1.3972,-1.3964,-1.3964,-1.3964,-1.3964,-1.3965,-1.3951,-1.3968,-1.3968,-1.3968,-1.3967,-1.3967,0,-1.4186,-1.4174,-1.4164,-1.4147,-1.4137,-1.4124,-1.4108,-1.4104,-1.4073,-1.4064,-1.4049,-1.4037,-1.4013,-1.3995,-1.3972,-1.3957,-1.3938,-1.3935,-1.3934,-1.3942,-1.3949,-1.3942,-1.3914,-1.3935,-1.3935,-1.3935,-1.3935,-1.3935,-1.4144,-1.4145,-1.4117,-1.4111,-1.4101,-1.4092,-1.4084,-1.4058,-1.4049,-1.4026,-1.4024,-1.4007,-1.3993,-1.3969,-1.3946,-1.3927,-1.3918,-1.3927,-1.3916,-1.392,-1.3916,-1.3916,-1.3914,-1.3931,-1.3931,-1.3932,-1.3932,0,-1.412,-1.4099,-1.4096,-1.407,-1.4063,-1.4065,-1.4041,-1.4037,-1.402,-1.4012,-1.4008,-1.3981,-1.3966,-1.3942,-1.3921,-1.3908,-1.3901,-1.3894,-1.3908,-1.3904,-1.3908,-1.3908,-1.3931,-1.3931,-1.3902,-1.3903,-1.3903,0,-1.4076,-1.4079,-1.4046,-1.4046,-1.4047,-1.4023,-1.4023,-1.4009,-1.3992,-1.3986,-1.3962,-1.3957,-1.3928,-1.3917,-1.3899,-1.3889,-1.3887,-1.3876,-1.3871,-1.3878,-1.3879,-1.3873,-1.3871,-1.3863,-1.3863,-1.3863,-1.3863,0,-1.4042,-1.403,-1.403,-1.4024,-1.3999,-1.3998,-1.3987,-1.3969,-1.3962,-1.3949,-1.3943,-1.3929,-1.3921,-1.3909,-1.3886,-1.3879,-1.3876,-1.3861,-1.3865,-1.3865,-1.3867,-1.3867,-1.3893,-1.3863,-1.3863,-1.3863,-1.3863,0,-1.4004,-1.3994,-1.3999,-1.3976,-1.3974,-1.3975,-1.3961,-1.3956,-1.3939,-1.3929,-1.3918,-1.3901,-1.3895,-1.3881,-1.387,-1.3866,-1.3858,-1.3848,-1.3848,-1.3847,-1.3833,-1.3849,-1.3877,-1.3878,-1.3842,-1.3842,-1.3842,0,-1.3968,-1.397,-1.3951,-1.3956,-1.3954,-1.3929,-1.3928,-1.3916,-1.3903,-1.3896,-1.3881,-1.3875,-1.386,-1.3855,-1.3853,-1.3837,-1.3841,-1.3835,-1.3822,-1.3821,-1.3826,-1.3851,-1.3862,-1.3873,-1.384,-1.384,-1.384,0,-1.394,-1.3914,-1.3917,-1.3909,-1.3892,-1.3892,-1.3891,-1.3882,-1.3878,-1.3869,-1.3867,-1.3859,-1.3847,-1.3841,-1.3827,-1.3826,-1.3837,-1.3813,-1.3813,-1.3816,-1.3838,-1.3847,-1.3849,-1.3827,-1.3827,-1.3827,-1.3838,0,-1.3882,-1.3883,-1.389,-1.3879,-1.3875,-1.388,-1.3861,-1.3858,-1.3846,-1.3834,-1.3831,-1.3819,-1.381,-1.3808,-1.3798,-1.3804,-1.3799,-1.3788,-1.3775,-1.3792,-1.3795,-1.3796,-1.3771,-1.377,-1.377,-1.377,0,0,-1.3853,-1.3855,-1.3838,-1.3841,-1.3837,-1.3815,-1.3821,-1.3814,-1.3803,-1.38,-1.3792,-1.3781,-1.3772,-1.3772,-1.3776,-1.3774,-1.3772,-1.3769,-1.3784,-1.3786,-1.3788,-1.3791,-1.3793,-1.3769,-1.3769,-1.3769,-1.3769,0,-1.3829,-1.3824,-1.3833,-1.3825,-1.3815,-1.3804,-1.3805,-1.3792,-1.3785,-1.3787,-1.3768,-1.3765,-1.3761,-1.3752,-1.3747,-1.3767,-1.3754,-1.3766,-1.3782,-1.3781,-1.3783,-1.3785,-1.3789,-1.3791,-1.3767,-1.3768,-1.3768,0,-1.3796,-1.3788,-1.3791,-1.3786,-1.378,-1.378,-1.376,-1.3763,-1.3762,-1.3741,-1.3743,-1.3734,-1.3723,-1.3727,-1.3729,-1.3722,-1.3738,-1.3732,-1.3734,-1.3735,-1.3732,-1.3735,-1.3737,-1.3704,-1.3704,-1.3704,0,0,-1.3778,-1.3781,-1.3766,-1.378,-1.3777,-1.3762,-1.3761,-1.3751,-1.3743,-1.374,-1.373,-1.3722,-1.3718,-1.3716,-1.3713,-1.3721,-1.3716,-1.3725,-1.3728,-1.3731,-1.3732,-1.373,-1.3733,-1.3703,-1.3703,-1.3703,0,0,-1.377,-1.3754,-1.3745,-1.3759,-1.3752,-1.3738,-1.3746,-1.3734,-1.373,-1.3728,-1.371,-1.3707,-1.3712,-1.3705,-1.3699,-1.3707,-1.3694,-1.3695,-1.3712,-1.3716,-1.3719,-1.372,-1.3679,0,0,0,0,0,-1.3739,-1.3756,-1.3747,-1.3747,-1.3743,-1.3743,-1.3742,-1.3728,-1.3718,-1.3724,-1.3713,-1.37,-1.3697,-1.3691,-1.3691,-1.3698,-1.3696,-1.3697,-1.3699,-1.3722,-1.3726,-1.373,0,0,0,0,0,0,-1.3739,-1.3739,-1.3747,-1.3735,-1.3733,-1.3742,-1.3721,-1.3718,-1.3717,-1.3715,-1.3703,-1.37,-1.3688,-1.3691,-1.3691,-1.3698,-1.3679,-1.3697,-1.3698,-1.3699,-1.3724,-1.3727,-1.373,0,0,0,0,0,-1.3738,-1.3739,-1.3736,-1.3734,-1.3733,-1.3719,-1.3721,-1.3718,-1.3717,-1.3702,-1.3699,-1.3707,-1.3689,-1.3687,-1.3691,-1.3698,-1.3679,-1.3679,-1.3697,-1.3698,-1.3699,-1.3725,0,0,0,0,0,0,-1.3738,-1.3735,-1.3735,-1.3734,-1.3728,-1.3718,-1.3716,-1.3718,-1.3704,-1.3701,-1.3705,-1.3703,-1.3689,-1.3688,-1.3687,-1.3699,-1.3679,-1.3679,-1.3679,-1.3698,-1.3699,-1.3699,0,0,0,0,0,0,-1.3735,-1.3735,-1.3735,-1.3728,-1.3726,-1.3717,-1.3716,-1.3717,-1.3704,-1.3708,-1.3706,-1.3704,-1.369,-1.3689,-1.3688,-1.3692,-1.3679,-1.3679,-1.3679,-1.3679,-1.3698,-1.3699,0,0,0,0,0,0,-1.3735,-1.3734,-1.3728,-1.3727,-1.3725,-1.3713,-1.3718,-1.3714,-1.3699,-1.3709,-1.3697,-1.3697,-1.3691,-1.369,-1.3689,-1.3693,-1.3692,-1.3679,-1.3679,-1.3679,-1.3679,0,0,0,0,0,0,0,-1.3734,-1.374,-1.3741,-1.3726,-1.3724,-1.3726,-1.3725,-1.3725,-1.3699,-1.3698,-1.3698,-1.3697,-1.3679,-1.3679,-1.3679,-1.3694,0,0,-1.3679,-1.3679,0,0,0,0,0,0,0,0,-1.374,-1.374,-1.3741,-1.3741,-1.374,-1.3726,-1.3725,-1.3725,-1.3699,-1.3698,-1.3698,-1.3697,-1.3679,-1.3679,-1.3679,0,0,0,0,0,0,0,0,0,0,0,0,0,0,0,-1.3741,-1.3741,0,-1.3726,-1.3725,-1.3725,-1.3699,-1.3698,-1.3698,-1.3697,-1.3679,-1.3679,-1.3679,0,0,0,0,0,0,0,0,0,0,0,0,0,0,0,0,0,0,0,0,0,0,0,0,0,0,0,0,0,0,0,0,0,0,0,0,0,0,0,0,0,0,0,0,0,0,0,0,0,0,0,0,0,0,0,0,0,0,0,0,0,0,0,0,0,0,0,0,0]}],[{"header":{"parameterUnit":"kt","parameterCategory":2,"dx":1,"dy":1,"la1":30.253999710083008,"la2":30.299108505249023,"lo1":-89.0895004272461,"lo2":-89.04439544677734,"nx":28,"ny":28,"refTime":"2022-10-12T21:00:00:Z","depth":0,"parameterNumber":2,"parameterNumberName":"V-component_of_WINDS"},"data":[-7.7223,-7.7249,-7.7213,-7.7223,-7.7192,-7.7192,-7.718,-7.716,-7.7134,-7.7127,-7.7115,-7.7079,-7.7036,-7.7011,-7.6994,-7.6977,-7.6972,-7.7005,-7.698,-7.6865,-7.6846,-7.6829,-7.6821,-7.7006,-7.7006,-7.7103,-7.7104,-7.7105,-7.7134,-7.7104,-7.7101,-7.7073,-7.7069,-7.7013,-7.6985,-7.6984,-7.6985,-7.6954,-7.6942,-7.6932,-7.6919,-7.6864,-7.6843,-7.6849,-7.6821,-7.6846,-7.6844,-7.6837,-7.6713,-7.6705,-7.6869,-7.6869,-7.6869,-7.6869,-7.6869,-7.6869,-7.6961,-7.6979,-7.6942,-7.6938,-7.6914,-7.6895,-7.6904,-7.6862,-7.6856,-7.6835,-7.6792,-7.6792,-7.6752,-7.671,-7.6687,-7.6682,-7.6647,-7.6663,-7.6666,-7.667,-7.6679,-7.6536,-7.6677,-7.6677,-7.6676,-7.6676,-7.6675,0,-7.6823,-7.6792,-7.6789,-7.6773,-7.6768,-7.6752,-7.6732,-7.6736,-7.6657,-7.6656,-7.6651,-7.6641,-7.662,-7.6609,-7.6582,-7.6554,-7.6495,-7.6486,-7.6496,-7.6515,-7.6534,-7.652,-7.6317,-7.6482,-7.6481,-7.6479,-7.6478,-7.6478,-7.6644,-7.6671,-7.6617,-7.6618,-7.6599,-7.6603,-7.6597,-7.6526,-7.6523,-7.6485,-7.6503,-7.6492,-7.648,-7.6475,-7.6423,-7.6407,-7.6377,-7.6444,-7.6375,-7.6391,-7.6374,-7.6372,-7.6372,-7.6458,-7.6461,-7.6463,-7.6464,0,-7.6545,-7.6489,-7.6519,-7.6463,-7.6449,-7.648,-7.643,-7.6444,-7.6402,-7.6415,-7.6414,-7.6347,-7.6342,-7.6279,-7.6262,-7.6228,-7.6269,-7.6243,-7.628,-7.6271,-7.6321,-7.6316,-7.6503,-7.6521,-7.6332,-7.6334,-7.6336,0,-7.6369,-7.6408,-7.632,-7.6341,-7.638,-7.6309,-7.6348,-7.6316,-7.6285,-7.6294,-7.6219,-7.623,-7.6149,-7.6149,-7.61,-7.6123,-7.6121,-7.6095,-7.6082,-7.6101,-7.6104,-7.6096,-7.6086,-7.6055,-7.6054,-7.6053,-7.6052,0,-7.6219,-7.622,-7.6254,-7.6245,-7.619,-7.6206,-7.6184,-7.6149,-7.6144,-7.6128,-7.6124,-7.611,-7.6102,-7.6091,-7.6029,-7.5984,-7.6057,-7.5983,-7.6031,-7.6032,-7.605,-7.6049,-7.6232,-7.6051,-7.6051,-7.6051,-7.605,0,-7.6068,-7.6058,-7.6117,-7.6068,-7.6071,-7.6094,-7.6076,-7.6082,-7.605,-7.6022,-7.6009,-7.5952,-7.5971,-7.59,-7.5922,-7.5881,-7.5876,-7.5854,-7.5857,-7.5853,-7.5776,-7.5883,-7.6066,-7.6081,-7.585,-7.5848,-7.5847,0,-7.591,-7.5956,-7.5897,-7.5955,-7.5968,-7.5882,-7.5906,-7.5882,-7.5847,-7.585,-7.5809,-7.5814,-7.5749,-7.5742,-7.5762,-7.572,-7.5774,-7.5711,-7.5709,-7.571,-7.5718,-7.5885,-7.5927,-7.6033,-7.5825,-7.5827,-7.5829,0,-7.578,-7.5717,-7.5733,-7.5718,-7.5678,-7.569,-7.5718,-7.5708,-7.5713,-7.5697,-7.5715,-7.5723,-7.5672,-7.5663,-7.5616,-7.5639,-7.5735,-7.5582,-7.558,-7.5609,-7.581,-7.5849,-7.5867,-7.5697,-7.5699,-7.5702,-7.5811,0,-7.5558,-7.5576,-7.5616,-7.5592,-7.5592,-7.5627,-7.5565,-7.5572,-7.5527,-7.549,-7.5519,-7.5485,-7.5475,-7.5482,-7.5439,-7.5515,-7.5492,-7.544,-7.5366,-7.5478,-7.5512,-7.5526,-7.5319,-7.5317,-7.5315,-7.5313,0,0,-7.5419,-7.5445,-7.5381,-7.5408,-7.5404,-7.5317,-7.5359,-7.5345,-7.5319,-7.5316,-7.5275,-7.5281,-7.5257,-7.5298,-7.5329,-7.5326,-7.5332,-7.5298,-7.5426,-7.5439,-7.5451,-7.5488,-7.5504,-7.5309,-7.5309,-7.5308,-7.5307,0,-7.5325,-7.5306,-7.5351,-7.5334,-7.5306,-7.5266,-7.5277,-7.5234,-7.5213,-7.5244,-7.5171,-7.5181,-7.5192,-7.5173,-7.5165,-7.5291,-7.5234,-7.5293,-7.5381,-7.5407,-7.5423,-7.5436,-7.5477,-7.5493,-7.5302,-7.5302,-7.5302,0,-7.5184,-7.5154,-7.5171,-7.5161,-7.5143,-7.516,-7.5067,-7.5091,-7.5102,-7.5006,-7.5038,-7.5012,-7.4984,-7.5034,-7.5054,-7.5017,-7.5148,-7.5098,-7.511,-7.511,-7.5132,-7.5151,-7.5168,-7.4945,-7.4943,-7.4943,0,0,-7.5112,-7.513,-7.5077,-7.5137,-7.513,-7.5072,-7.5076,-7.5032,-7.5011,-7.5003,-7.4968,-7.4948,-7.4952,-7.4957,-7.4958,-7.5023,-7.5009,-7.5056,-7.5073,-7.5087,-7.5096,-7.5122,-7.514,-7.4939,-7.4939,-7.4939,0,0,-7.5077,-7.5018,-7.4977,-7.504,-7.5022,-7.4973,-7.5011,-7.4959,-7.4955,-7.4944,-7.4871,-7.4862,-7.4908,-7.4886,-7.4843,-7.493,-7.4858,-7.4867,-7.4943,-7.4963,-7.498,-7.4984,-7.4743,0,0,0,0,0,-7.495,-7.5025,-7.4989,-7.499,-7.4979,-7.4993,-7.4991,-7.4933,-7.4882,-7.4913,-7.4875,-7.4816,-7.4846,-7.4807,-7.4808,-7.4857,-7.489,-7.4899,-7.4907,-7.5019,-7.5041,-7.506,0,0,0,0,0,0,-7.4951,-7.4953,-7.4986,-7.4942,-7.4939,-7.499,-7.4891,-7.4877,-7.4878,-7.4866,-7.4825,-7.4815,-7.4765,-7.4802,-7.4804,-7.4852,-7.4742,-7.4894,-7.4901,-7.4908,-7.5027,-7.5045,-7.506,0,0,0,0,0,-7.495,-7.4952,-7.495,-7.494,-7.4938,-7.4878,-7.4888,-7.4876,-7.4875,-7.4818,-7.4806,-7.4831,-7.4768,-7.4766,-7.4803,-7.4852,-7.474,-7.4741,-7.4899,-7.4904,-7.4909,-7.5036,0,0,0,0,0,0,-7.495,-7.494,-7.4948,-7.4945,-7.4909,-7.4873,-7.4866,-7.4875,-7.4825,-7.4814,-7.482,-7.4811,-7.4771,-7.4768,-7.4767,-7.4855,-7.4738,-7.4739,-7.474,-7.4903,-7.4907,-7.4911,0,0,0,0,0,0,-7.4939,-7.4938,-7.4947,-7.4911,-7.4903,-7.487,-7.4864,-7.4888,-7.4826,-7.483,-7.4821,-7.4817,-7.4772,-7.4771,-7.477,-7.4809,-7.4737,-7.4738,-7.4739,-7.4739,-7.4907,-7.491,0,0,0,0,0,0,-7.4937,-7.4937,-7.4911,-7.4905,-7.4898,-7.4858,-7.489,-7.4881,-7.4797,-7.4833,-7.4787,-7.4783,-7.4776,-7.4773,-7.4772,-7.4813,-7.481,-7.4737,-7.4738,-7.4738,-7.4739,0,0,0,0,0,0,0,-7.4936,-7.4954,-7.4967,-7.49,-7.4894,-7.4916,-7.4916,-7.4915,-7.4796,-7.4792,-7.4788,-7.4785,-7.4731,-7.4732,-7.4733,-7.4815,0,0,-7.4737,-7.4737,0,0,0,0,0,0,0,0,-7.4953,-7.4954,-7.4967,-7.4967,-7.4966,-7.4916,-7.4916,-7.4915,-7.4795,-7.4792,-7.4789,-7.4786,-7.4731,-7.4732,-7.4733,0,0,0,0,0,0,0,0,0,0,0,0,0,0,0,-7.4967,-7.4967,0,-7.4916,-7.4916,-7.4915,-7.4795,-7.4792,-7.479,-7.4788,-7.4731,-7.4732,-7.4733,0,0,0,0,0,0,0,0,0,0,0,0,0,0,0,0,0,0,0,0,0,0,0,0,0,0,0,0,0,0,0,0,0,0,0,0,0,0,0,0,0,0,0,0,0,0,0,0,0,0,0,0,0,0,0,0,0,0,0,0,0,0,0,0,0,0,0,0,0]}]]]